Time[GMT],salinity[psu](1m),sigma_t[kg/m^3](1m),conductivity[msiemens/cm](1m),temperature[C](1m)
2019-08-26 20:00,34.395,21.427,56.980,29.55
2019-08-26 21:00,34.388,21.422,56.970,29.55
2019-08-26 22:00,34.396,21.446,56.930,29.50
2019-08-26 23:00,34.391,21.455,56.880,29.46
2019-08-27 00:00,34.384,21.453,56.860,29.45
2019-08-27 01:00,34.377,21.445,56.860,29.46
2019-08-27 02:00,34.364,21.438,56.830,29.45
2019-08-27 03:00,34.358,21.444,56.790,29.42
2019-08-27 04:00,34.359,21.455,56.760,29.39
2019-08-27 06:00,34.359,21.451,56.770,29.40
2019-08-27 07:00,34.367,21.471,56.740,29.36
2019-08-27 08:00,34.360,21.466,56.730,29.36
2019-08-27 09:00,34.375,21.490,56.710,29.32
2019-08-27 10:00,34.381,21.481,56.760,29.36
2019-08-27 11:00,34.374,21.476,56.750,29.36
2019-08-27 12:00,34.381,21.485,56.750,29.35
2019-08-27 13:00,34.380,21.470,56.790,29.39
2019-08-27 14:00,34.385,21.457,56.850,29.44
2019-08-27 15:00,34.383,21.439,56.900,29.49
2019-08-27 16:00,34.383,21.443,56.890,29.48
2019-08-27 17:00,34.393,21.413,57.020,29.59
2019-08-27 18:00,34.502,21.494,57.180,29.59
2019-08-27 19:00,34.501,21.487,57.200,29.61
2019-08-27 20:00,34.460,21.457,57.140,29.61
2019-08-27 21:00,34.416,21.454,56.980,29.52
2019-08-27 22:00,34.395,21.435,56.960,29.53
2019-08-27 23:00,34.395,21.427,56.980,29.55
2019-08-28 00:00,34.395,21.431,56.970,29.54
2019-08-28 01:00,34.395,21.435,56.960,29.53
2019-08-28 02:00,34.396,21.446,56.930,29.50
2019-08-28 03:00,34.410,21.459,56.940,29.49
2019-08-28 04:00,34.411,21.467,56.920,29.47
2019-08-28 05:00,34.411,21.467,56.920,29.47
2019-08-28 06:00,34.398,21.464,56.880,29.45
2019-08-28 07:00,34.405,21.472,56.880,29.44
2019-08-28 08:00,34.405,21.472,56.880,29.44
2019-08-28 09:00,34.406,21.480,56.860,29.42
2019-08-28 10:00,34.400,21.482,56.830,29.40
2019-08-28 11:00,34.401,21.496,56.790,29.36
2019-08-28 12:00,34.407,21.494,56.820,29.38
2019-08-28 13:00,34.399,21.478,56.840,29.41
2019-08-28 14:00,34.402,21.443,56.960,29.52
2019-08-28 15:00,34.409,21.441,56.990,29.54
2019-08-28 16:00,34.409,21.441,56.990,29.54
2019-08-28 17:00,34.414,21.432,57.040,29.58
2019-08-28 18:00,34.408,21.438,57.000,29.55
2019-08-28 19:00,34.416,21.450,56.990,29.53
2019-08-28 20:00,34.410,21.456,56.950,29.50
2019-08-28 21:00,34.417,21.465,56.950,29.49
2019-08-28 22:00,34.411,21.463,56.930,29.48
2019-08-28 23:00,34.417,21.468,56.940,29.48
2019-08-29 00:00,34.425,21.484,56.920,29.45
2019-08-29 01:00,34.426,21.488,56.910,29.44
2019-08-29 02:00,34.433,21.500,56.900,29.42
2019-08-29 03:00,34.453,21.512,56.940,29.43
2019-08-29 04:00,34.461,21.524,56.930,29.41
2019-08-29 05:00,34.447,21.510,56.920,29.42
2019-08-29 06:00,34.461,21.524,56.930,29.41
2019-08-29 07:00,34.500,21.540,57.030,29.45
2019-08-29 08:00,34.493,21.528,57.040,29.47
2019-08-29 09:00,34.507,21.542,57.050,29.46
2019-08-29 10:00,34.462,21.539,56.890,29.37
2019-08-29 11:00,34.468,21.537,56.920,29.39
2019-08-29 12:00,34.468,21.529,56.940,29.41
2019-08-29 13:00,34.428,21.513,56.840,29.37
2019-08-29 14:00,34.455,21.462,57.100,29.58
2019-08-29 15:00,34.513,21.479,57.270,29.66
2019-08-29 16:00,34.527,21.489,57.290,29.66
2019-08-29 17:00,34.562,21.533,57.290,29.61
2019-08-29 18:00,34.599,21.580,57.280,29.55
2019-08-29 19:00,34.490,21.442,57.300,29.72
2019-08-29 20:00,34.550,21.530,57.250,29.59
2019-08-29 21:00,34.478,21.507,57.050,29.50
2019-08-29 22:00,34.429,21.460,57.010,29.53
2019-08-29 23:00,34.443,21.467,57.040,29.54
2019-08-30 00:00,34.502,21.494,57.180,29.59
2019-08-30 01:00,34.523,21.517,57.190,29.57
2019-08-30 02:00,34.550,21.534,57.240,29.58
2019-08-30 03:00,34.543,21.529,57.230,29.58
2019-08-30 04:00,34.564,21.548,57.250,29.57
2019-08-30 05:00,34.558,21.550,57.220,29.55
2019-08-30 06:00,34.533,21.551,57.120,29.49
2019-08-30 07:00,34.502,21.559,56.980,29.40
2019-08-30 08:00,34.544,21.597,57.020,29.38
2019-08-30 09:00,34.529,21.579,57.020,29.40
2019-08-30 10:00,34.544,21.604,57.000,29.36
2019-08-30 11:00,34.529,21.575,57.030,29.41
2019-08-30 12:00,34.555,21.581,57.110,29.45
2019-08-30 13:00,34.580,21.583,57.200,29.50
2019-08-30 14:00,34.584,21.563,57.280,29.57
2019-08-30 15:00,34.557,21.539,57.250,29.58
2019-08-30 16:00,34.540,21.499,57.310,29.66
2019-08-30 17:00,34.537,21.535,57.190,29.55
2019-08-30 18:00,34.537,21.535,57.190,29.55
2019-08-30 19:00,34.538,21.542,57.170,29.53
2019-08-30 20:00,34.637,21.646,57.220,29.44
2019-08-30 21:00,34.618,21.646,57.150,29.40
2019-08-30 22:00,34.591,21.625,57.110,29.40
2019-08-30 23:00,34.567,21.520,57.350,29.66
2019-08-31 00:00,34.585,21.509,57.450,29.73
2019-08-31 01:00,34.580,21.519,57.400,29.69
2019-08-31 02:00,34.574,21.521,57.370,29.67
2019-08-31 03:00,34.561,21.522,57.320,29.64
2019-08-31 04:00,34.562,21.529,57.300,29.62
2019-08-31 05:00,34.563,21.537,57.280,29.60
2019-08-31 06:00,34.571,21.556,57.250,29.56
2019-08-31 07:00,34.541,21.575,57.080,29.44
2019-08-31 08:00,34.598,21.634,57.110,29.39
2019-08-31 09:00,34.571,21.621,57.050,29.37
2019-08-31 10:00,34.588,21.600,57.180,29.47
2019-08-31 11:00,34.568,21.588,57.140,29.46
2019-08-31 12:00,34.562,21.594,57.100,29.43
2019-08-31 13:00,34.564,21.608,57.060,29.39
2019-08-31 14:00,34.516,21.444,57.390,29.77
2019-08-31 15:00,34.525,21.417,57.510,29.87
2019-08-31 16:00,34.538,21.416,57.560,29.90
2019-08-31 17:00,34.521,21.369,57.640,30.00
2019-08-31 18:00,34.511,21.400,57.510,29.89
2019-08-31 19:00,34.521,21.438,57.430,29.80
2019-08-31 20:00,34.522,21.445,57.410,29.78
2019-08-31 21:00,34.540,21.442,57.490,29.83
2019-08-31 22:00,34.563,21.479,57.460,29.77
2019-08-31 23:00,34.543,21.471,57.410,29.75
2019-09-01 00:00,34.548,21.451,57.490,29.82
2019-09-01 01:00,34.542,21.457,57.450,29.79
2019-09-01 02:00,34.543,21.468,57.420,29.76
2019-09-01 03:00,34.533,21.487,57.320,29.68
2019-09-01 04:00,34.519,21.480,57.290,29.67
2019-09-01 05:00,34.533,21.491,57.310,29.67
2019-09-01 06:00,34.528,21.500,57.260,29.63
2019-09-01 07:00,34.523,21.513,57.200,29.58
2019-09-01 08:00,34.543,21.532,57.220,29.57
2019-09-01 09:00,34.598,21.638,57.100,29.38
2019-09-01 10:00,34.613,21.655,57.100,29.36
2019-09-01 11:00,34.596,21.612,57.170,29.45
2019-09-01 12:00,34.613,21.659,57.090,29.35
2019-09-01 13:00,34.611,21.637,57.150,29.41
2019-09-01 14:00,34.564,21.548,57.250,29.57
2019-09-01 15:00,34.556,21.471,57.460,29.78
2019-09-01 16:00,34.564,21.433,57.610,29.91
2019-09-01 17:00,34.562,21.411,57.670,29.97
2019-09-01 18:00,34.549,21.401,57.650,29.97
2019-09-01 19:00,34.548,21.454,57.480,29.81
2019-09-01 20:00,34.548,21.454,57.480,29.81
2019-09-01 21:00,34.563,21.476,57.470,29.78
2019-09-01 22:00,34.586,21.578,57.240,29.53
2019-09-01 23:00,34.602,21.613,57.190,29.46
2019-09-02 00:00,34.601,21.606,57.210,29.48
2019-09-02 01:00,34.566,21.509,57.380,29.69
2019-09-02 02:00,34.552,21.491,57.380,29.71
2019-09-02 03:00,34.547,21.508,57.310,29.65
2019-09-02 04:00,34.556,21.528,57.280,29.61
2019-09-02 05:00,34.527,21.497,57.270,29.64
2019-09-02 06:00,34.527,21.497,57.270,29.64
2019-09-02 07:00,34.535,21.509,57.260,29.62
2019-09-02 08:00,34.528,21.507,57.240,29.61
2019-09-02 09:00,34.543,21.532,57.220,29.57
2019-09-02 10:00,34.618,21.646,57.150,29.40
2019-09-02 11:00,34.625,21.654,57.150,29.39
2019-09-02 12:00,34.580,21.583,57.200,29.50
2019-09-02 13:00,34.599,21.580,57.280,29.55
2019-09-02 14:00,34.547,21.501,57.330,29.67
2019-09-02 15:00,34.537,21.466,57.400,29.75
2019-09-02 16:00,34.542,21.453,57.460,29.80
2019-09-02 17:00,34.552,21.430,57.570,29.89
2019-09-02 18:00,34.542,21.395,57.640,29.97
2019-09-02 19:00,34.559,21.381,57.750,30.05
2019-09-02 20:00,34.555,21.406,57.660,29.97
2019-09-02 21:00,34.567,21.401,57.720,30.01
2019-09-02 22:00,34.567,21.401,57.720,30.01
2019-09-02 23:00,34.582,21.480,57.530,29.81
2019-09-03 00:00,34.610,21.569,57.360,29.61
2019-09-03 01:00,34.595,21.547,57.370,29.64
2019-09-03 02:00,34.594,21.533,57.410,29.68
2019-09-03 03:00,34.571,21.495,57.440,29.74
2019-09-03 04:00,34.565,21.498,57.410,29.72
2019-09-03 05:00,34.566,21.509,57.380,29.69
2019-09-03 06:00,34.574,21.528,57.350,29.65
2019-09-03 07:00,34.574,21.525,57.360,29.66
2019-09-03 08:00,34.576,21.540,57.320,29.62
2019-09-03 09:00,34.584,21.556,57.300,29.59
2019-09-03 10:00,34.565,21.498,57.410,29.72
2019-09-03 11:00,34.580,21.526,57.380,29.67
2019-09-03 12:00,34.566,21.505,57.390,29.70
2019-09-03 13:00,34.563,21.476,57.470,29.78
2019-09-03 14:00,34.556,21.467,57.470,29.79
2019-09-03 15:00,34.561,21.461,57.510,29.82
2019-09-03 16:00,34.543,21.407,57.610,29.94
2019-09-03 17:00,34.536,21.394,57.620,29.96
2019-09-03 18:00,34.549,21.408,57.630,29.95
2019-09-03 19:00,34.549,21.404,57.640,29.96
2019-09-03 20:00,34.543,21.410,57.600,29.93
2019-09-03 21:00,34.552,21.434,57.560,29.88
2019-09-03 22:00,34.553,21.441,57.540,29.86
2019-09-03 23:00,34.554,21.448,57.520,29.84
2019-09-04 00:00,34.555,21.460,57.490,29.81
2019-09-04 01:00,34.553,21.441,57.540,29.86
2019-09-04 02:00,34.546,21.436,57.530,29.86
2019-09-04 03:00,34.546,21.440,57.520,29.85
2019-09-04 04:00,34.553,21.445,57.530,29.85
2019-09-04 05:00,34.554,21.452,57.510,29.83
2019-09-04 06:00,34.550,21.477,57.420,29.75
2019-09-04 07:00,34.554,21.510,57.330,29.66
2019-09-04 08:00,34.555,21.521,57.300,29.63
2019-09-04 09:00,34.562,21.529,57.300,29.62
2019-09-04 10:00,34.555,21.524,57.290,29.62
2019-09-04 11:00,34.561,21.522,57.320,29.64
2019-09-04 12:00,34.560,21.515,57.340,29.66
2019-09-04 13:00,34.574,21.521,57.370,29.67
2019-09-04 14:00,34.560,21.507,57.360,29.68
2019-09-04 15:00,34.559,21.500,57.380,29.70
2019-09-04 16:00,34.578,21.504,57.440,29.73
2019-09-04 17:00,34.579,21.515,57.410,29.70
2019-09-04 18:00,34.572,21.503,57.420,29.72
2019-09-04 19:00,34.570,21.488,57.460,29.76
2019-09-04 20:00,34.610,21.511,57.540,29.78
2019-09-04 21:00,34.612,21.526,57.500,29.74
2019-09-04 22:00,34.614,21.544,57.450,29.69
2019-09-04 23:00,34.600,21.538,57.420,29.68
2019-09-05 00:00,34.589,21.492,57.520,29.79
2019-09-05 01:00,34.600,21.531,57.440,29.70
2019-09-05 02:00,34.580,21.526,57.380,29.67
2019-09-05 03:00,34.588,21.539,57.370,29.65
2019-09-05 04:00,34.595,21.544,57.380,29.65
2019-09-05 05:00,34.595,21.547,57.370,29.64
2019-09-05 06:00,34.602,21.553,57.380,29.64
2019-09-05 07:00,34.595,21.547,57.370,29.64
2019-09-05 08:00,34.610,21.572,57.350,29.60
2019-09-05 09:00,34.604,21.575,57.320,29.58
2019-09-05 10:00,34.624,21.586,57.360,29.59
2019-09-05 11:00,34.638,21.600,57.370,29.58
2019-09-05 12:00,34.693,21.645,57.440,29.57
2019-09-05 13:00,34.666,21.624,57.400,29.57
2019-09-05 14:00,34.642,21.579,57.450,29.65
2019-09-05 15:00,34.639,21.546,57.540,29.74
2019-09-05 16:00,34.611,21.522,57.510,29.75
2019-09-05 17:00,34.606,21.536,57.450,29.70
2019-09-05 18:00,34.606,21.528,57.470,29.72
2019-09-05 19:00,34.598,21.516,57.480,29.74
2019-09-05 20:00,34.592,21.518,57.450,29.72
2019-09-05 21:00,34.577,21.493,57.470,29.76
2019-09-05 22:00,34.578,21.501,57.450,29.74
2019-09-05 23:00,34.571,21.499,57.430,29.73
2019-09-06 00:00,34.569,21.481,57.480,29.78
2019-09-06 01:00,34.642,21.518,57.640,29.83
2019-09-06 02:00,34.564,21.487,57.440,29.75
2019-09-06 03:00,34.551,21.484,57.400,29.73
2019-09-06 04:00,34.557,21.478,57.440,29.76
2019-09-06 05:00,34.557,21.482,57.430,29.75
2019-09-06 06:00,34.423,21.398,57.180,29.70
2019-09-06 07:00,34.527,21.489,57.290,29.66
2019-09-06 08:00,34.547,21.508,57.310,29.65
2019-09-06 09:00,34.553,21.506,57.340,29.67
2019-09-06 10:00,34.581,21.534,57.360,29.65
2019-09-06 11:00,34.595,21.544,57.380,29.65
2019-09-06 12:00,34.602,21.553,57.380,29.64
2019-09-06 13:00,34.579,21.508,57.430,29.72
2019-09-06 14:00,34.656,21.586,57.480,29.66
2019-09-06 15:00,34.673,21.572,57.590,29.74
2019-09-06 16:00,34.633,21.495,57.680,29.88
2019-09-06 17:00,34.632,21.480,57.720,29.92
2019-09-06 18:00,34.607,21.478,57.630,29.87
2019-09-06 19:00,34.597,21.443,57.700,29.95
2019-09-06 20:00,34.591,21.449,57.660,29.92
2019-09-06 21:00,34.608,21.489,57.600,29.84
2019-09-06 22:00,34.653,21.506,57.720,29.89
2019-09-06 23:00,34.628,21.504,57.630,29.84
2019-09-07 00:00,34.623,21.510,57.590,29.81
2019-09-07 01:00,34.609,21.496,57.580,29.82
2019-09-07 02:00,34.805,21.748,57.540,29.51
2019-09-07 03:00,34.639,21.546,57.540,29.74
2019-09-07 04:00,34.604,21.510,57.520,29.77
2019-09-07 05:00,34.617,21.520,57.540,29.77
2019-09-07 06:00,34.636,21.524,57.600,29.80
2019-09-07 07:00,34.662,21.530,57.680,29.84
2019-09-07 08:00,34.677,21.555,57.660,29.80
2019-09-07 09:00,34.666,21.563,57.590,29.75
2019-09-07 10:00,34.674,21.579,57.570,29.72
2019-09-07 11:00,34.680,21.584,57.580,29.72
2019-09-07 12:00,34.674,21.579,57.570,29.72
2019-09-07 13:00,34.686,21.582,57.610,29.74
2019-09-07 14:00,34.682,21.545,57.710,29.84
2019-09-07 15:00,34.675,21.478,57.890,30.02
2019-09-07 16:00,34.694,21.428,58.120,30.21
2019-09-07 17:00,34.641,21.449,57.850,30.03
2019-09-07 18:00,34.580,21.465,57.570,29.85
2019-09-07 19:00,34.585,21.452,57.630,29.90
2019-09-07 20:00,34.586,21.455,57.620,29.89
2019-09-07 21:00,34.609,21.496,57.580,29.82
2019-09-07 22:00,34.610,21.508,57.550,29.79
2019-09-07 23:00,34.636,21.524,57.600,29.80
2019-09-08 00:00,34.629,21.512,57.610,29.82
2019-09-08 01:00,34.622,21.507,57.600,29.82
2019-09-08 02:00,34.636,21.524,57.600,29.80
2019-09-08 03:00,34.623,21.518,57.570,29.79
2019-09-08 04:00,34.636,21.524,57.600,29.80
2019-09-08 05:00,34.631,21.534,57.550,29.76
2019-09-08 06:00,34.631,21.534,57.550,29.76
2019-09-08 07:00,34.632,21.538,57.540,29.75
2019-09-08 08:00,34.667,21.578,57.550,29.71
2019-09-08 09:00,34.700,21.653,57.440,29.56
2019-09-08 10:00,34.771,21.723,57.490,29.51
2019-09-08 11:00,34.775,21.760,57.390,29.41
2019-09-08 12:00,34.751,21.715,57.440,29.49
2019-09-08 13:00,34.663,21.541,57.650,29.81
2019-09-08 14:00,34.651,21.484,57.780,29.95
2019-09-08 15:00,34.641,21.391,58.030,30.20
2019-09-08 16:00,34.657,21.423,57.990,30.14
2019-09-08 17:00,34.616,21.276,58.290,30.48
2019-09-08 18:00,34.627,21.381,58.010,30.20
2019-09-08 19:00,34.630,21.407,57.940,30.13
2019-09-08 20:00,34.632,21.426,57.890,30.08
2019-09-08 21:00,34.630,21.465,57.760,29.96
2019-09-08 22:00,34.638,21.481,57.740,29.93
2019-09-08 23:00,34.627,21.497,57.650,29.86
2019-09-09 00:00,34.655,21.525,57.670,29.84
2019-09-09 01:00,34.637,21.528,57.590,29.79
2019-09-09 02:00,34.649,21.527,57.640,29.82
2019-09-09 03:00,34.643,21.529,57.610,29.80
2019-09-09 04:00,34.645,21.544,57.570,29.76
2019-09-09 05:00,34.634,21.556,57.490,29.70
2019-09-09 06:00,34.647,21.566,57.510,29.70
2019-09-09 07:00,34.647,21.562,57.520,29.71
2019-09-09 08:00,34.640,21.557,57.510,29.71
2019-09-09 09:00,34.647,21.566,57.510,29.70
2019-09-09 10:00,34.649,21.581,57.470,29.66
2019-09-09 11:00,34.664,21.609,57.440,29.61
2019-09-09 12:00,34.663,21.595,57.480,29.65
2019-09-09 13:00,34.668,21.585,57.530,29.69
2019-09-09 14:00,34.678,21.566,57.630,29.77
2019-09-09 15:00,34.693,21.533,57.790,29.90
2019-09-09 16:00,34.776,21.605,57.880,29.87
2019-09-09 17:00,34.748,21.472,58.190,30.20
2019-09-09 18:00,34.777,21.511,58.180,30.15
2019-09-09 19:00,34.769,21.545,58.040,30.03
2019-09-09 20:00,34.738,21.546,57.920,29.96
2019-09-09 21:00,34.697,21.450,58.060,30.15
2019-09-09 22:00,34.689,21.441,58.060,30.16
2019-09-09 23:00,34.745,21.609,57.750,29.79
2019-09-10 00:00,34.768,21.647,57.720,29.73
2019-09-10 01:00,34.738,21.597,57.760,29.81
2019-09-10 02:00,34.730,21.526,57.950,30.00
2019-09-10 03:00,34.687,21.473,57.950,30.06
2019-09-10 04:00,34.674,21.467,57.920,30.05
2019-09-10 05:00,34.661,21.468,57.870,30.02
2019-09-10 06:00,34.664,21.494,57.800,29.95
2019-09-10 07:00,34.657,21.482,57.810,29.97
2019-09-10 08:00,34.660,21.507,57.740,29.90
2019-09-10 09:00,34.660,21.511,57.730,29.89
2019-09-10 10:00,34.686,21.524,57.790,29.91
2019-09-10 11:00,34.733,21.556,57.870,29.92
2019-09-10 12:00,34.674,21.529,57.730,29.87
2019-09-10 13:00,34.660,21.511,57.730,29.89
2019-09-10 14:00,34.653,21.452,57.890,30.05
2019-09-10 15:00,34.662,21.417,58.030,30.17
2019-09-10 16:00,34.659,21.442,57.940,30.09
2019-09-10 17:00,34.663,21.370,58.180,30.31
2019-09-10 18:00,34.662,21.359,58.210,30.34
2019-09-10 19:00,34.669,21.371,58.200,30.32
2019-09-10 20:00,34.682,21.378,58.230,30.33
2019-09-10 21:00,34.685,21.400,58.170,30.27
2019-09-10 22:00,34.690,21.445,58.050,30.15
2019-09-10 23:00,34.684,21.444,58.030,30.14
2019-09-11 00:00,34.692,21.467,57.990,30.09
2019-09-11 01:00,34.688,21.481,57.930,30.04
2019-09-11 02:00,34.696,21.497,57.910,30.01
2019-09-11 03:00,34.690,21.503,57.870,29.98
2019-09-11 04:00,34.704,21.521,57.870,29.96
2019-09-11 05:00,34.697,21.512,57.870,29.97
2019-09-11 06:00,34.691,21.514,57.840,29.95
2019-09-11 07:00,34.691,21.514,57.840,29.95
2019-09-11 08:00,34.685,21.509,57.830,29.95
2019-09-11 09:00,34.693,21.525,57.810,29.92
2019-09-11 10:00,34.700,21.538,57.800,29.90
2019-09-11 11:00,34.769,21.658,57.690,29.70
2019-09-11 12:00,34.776,21.663,57.700,29.70
2019-09-11 13:00,34.796,21.671,57.750,29.72
2019-09-11 15:00,34.713,21.490,58.000,30.07
2019-09-11 16:00,34.689,21.437,58.070,30.17
2019-09-11 17:00,34.700,21.421,58.160,30.24
2019-09-11 18:00,34.692,21.409,58.170,30.26
2019-09-11 19:00,34.680,21.410,58.120,30.23
2019-09-11 20:00,34.681,21.421,58.090,30.20
2019-09-11 21:00,34.681,21.421,58.090,30.20
2019-09-11 22:00,34.669,21.426,58.030,30.16
2019-09-11 23:00,34.678,21.446,58.000,30.12
2019-09-12 00:00,34.678,21.453,57.980,30.10
2019-09-12 01:00,34.685,21.458,57.990,30.10
2019-09-12 02:00,34.693,21.475,57.970,30.07
2019-09-12 03:00,34.686,21.466,57.970,30.08
2019-09-12 04:00,34.669,21.484,57.850,29.99
2019-09-12 05:00,34.671,21.495,57.820,29.96
2019-09-12 06:00,34.665,21.498,57.790,29.94
2019-09-12 07:00,34.671,21.499,57.810,29.95
2019-09-12 08:00,34.683,21.491,57.880,30.00
2019-09-12 09:00,34.683,21.491,57.880,30.00
2019-09-12 10:00,34.683,21.494,57.870,29.99
2019-09-12 11:00,34.678,21.504,57.820,29.95
2019-09-12 12:00,34.686,21.520,57.800,29.92
2019-09-12 13:00,34.718,21.527,57.900,29.97
2019-09-12 14:00,34.755,21.528,58.040,30.05
2019-09-12 15:00,34.756,21.480,58.190,30.19
2019-09-12 16:00,34.698,21.410,58.190,30.27
2019-09-12 17:00,34.686,21.353,58.320,30.41
2019-09-12 18:00,34.685,21.341,58.350,30.44
2019-09-12 19:00,34.679,21.344,58.320,30.42
2019-09-12 20:00,34.679,21.344,58.320,30.42
2019-09-12 21:00,34.672,21.343,58.300,30.41
2019-09-12 22:00,34.674,21.354,58.270,30.38
2019-09-12 23:00,34.682,21.374,58.240,30.34
2019-09-13 00:00,34.689,21.383,58.240,30.33
2019-09-13 01:00,34.690,21.386,58.230,30.32
2019-09-13 02:00,34.691,21.398,58.200,30.29
2019-09-13 03:00,34.660,21.399,58.080,30.22
2019-09-13 04:00,34.681,21.417,58.100,30.21
2019-09-13 05:00,34.681,21.417,58.100,30.21
2019-09-13 06:00,34.676,21.427,58.050,30.17
2019-09-13 07:00,34.664,21.436,57.980,30.12
2019-09-13 08:00,34.664,21.436,57.980,30.12
2019-09-13 09:00,34.658,21.435,57.960,30.11
2019-09-13 10:00,34.659,21.446,57.930,30.08
2019-09-13 11:00,34.667,21.462,57.910,30.05
2019-09-13 12:00,34.659,21.449,57.920,30.07
2019-09-13 13:00,34.658,21.438,57.950,30.10
2019-09-13 14:00,34.655,21.405,58.040,30.19
2019-09-13 15:00,34.661,21.406,58.060,30.20
2019-09-13 16:00,34.657,21.372,58.150,30.29
2019-09-13 17:00,34.657,21.372,58.150,30.29
2019-09-13 18:00,34.663,21.370,58.180,30.31
2019-09-13 19:00,34.670,21.375,58.190,30.31
2019-09-13 20:00,34.670,21.375,58.190,30.31
2019-09-13 21:00,34.670,21.379,58.180,30.30
2019-09-13 22:00,34.684,21.389,58.200,30.30
2019-09-13 23:00,34.678,21.395,58.160,30.27
2019-09-14 00:00,34.685,21.404,58.160,30.26
2019-09-14 01:00,34.679,21.399,58.150,30.26
2019-09-14 02:00,34.679,21.399,58.150,30.26
2019-09-14 03:00,34.679,21.403,58.140,30.25
2019-09-14 04:00,34.680,21.410,58.120,30.23
2019-09-14 05:00,34.667,21.407,58.080,30.21
2019-09-14 06:00,34.674,21.416,58.080,30.20
2019-09-14 07:00,34.675,21.420,58.070,30.19
2019-09-14 08:00,34.675,21.424,58.060,30.18
2019-09-14 09:00,34.676,21.427,58.050,30.17
2019-09-14 10:00,34.676,21.427,58.050,30.17
2019-09-14 11:00,34.689,21.434,58.080,30.18
2019-09-14 12:00,34.681,21.425,58.080,30.19
2019-09-14 13:00,34.694,21.424,58.130,30.22
2019-09-14 14:00,34.681,21.417,58.100,30.21
2019-09-14 15:00,34.699,21.414,58.180,30.26
2019-09-14 16:00,34.704,21.404,58.230,30.30
2019-09-14 17:00,34.703,21.396,58.250,30.32
2019-09-14 18:00,34.701,21.381,58.290,30.36
2019-09-14 19:00,34.714,21.384,58.330,30.38
2019-09-14 20:00,34.708,21.386,58.300,30.36
2019-09-14 21:00,34.708,21.386,58.300,30.36
2019-09-14 22:00,34.702,21.389,58.270,30.34
2019-09-14 23:00,34.697,21.399,58.220,30.30
2019-09-15 00:00,34.693,21.420,58.140,30.23
2019-09-15 01:00,34.676,21.427,58.050,30.17
2019-09-15 02:00,34.665,21.440,57.970,30.11
2019-09-15 03:00,34.632,21.422,57.900,30.09
2019-09-15 04:00,34.632,21.426,57.890,30.08
2019-09-15 05:00,34.625,21.420,57.880,30.08
2019-09-15 06:00,34.632,21.426,57.890,30.08
2019-09-15 07:00,34.632,21.426,57.890,30.08
2019-09-15 08:00,34.632,21.429,57.880,30.07
2019-09-15 09:00,34.633,21.433,57.870,30.06
2019-09-15 10:00,34.641,21.449,57.850,30.03
2019-09-15 11:00,34.642,21.457,57.830,30.01
2019-09-15 12:00,34.641,21.453,57.840,30.02
2019-09-15 13:00,34.640,21.442,57.870,30.05
2019-09-15 14:00,34.639,21.431,57.900,30.08
2019-09-15 15:00,34.646,21.436,57.910,30.08
2019-09-15 16:00,34.644,21.417,57.960,30.13
2019-09-15 17:00,34.642,21.406,57.990,30.16
2019-09-15 18:00,34.649,21.415,57.990,30.15
2019-09-15 19:00,34.649,21.415,57.990,30.15
2019-09-15 20:00,34.649,21.407,58.010,30.17
2019-09-15 21:00,34.641,21.391,58.030,30.20
2019-09-15 22:00,34.641,21.391,58.030,30.20
2019-09-15 23:00,34.648,21.403,58.020,30.18
2019-09-16 00:00,34.649,21.415,57.990,30.15
2019-09-16 01:00,34.635,21.397,57.990,30.17
2019-09-16 02:00,34.649,21.407,58.010,30.17
2019-09-16 03:00,34.655,21.408,58.030,30.18
2019-09-16 04:00,34.669,21.422,58.040,30.17
2019-09-16 05:00,34.669,21.422,58.040,30.17
2019-09-16 06:00,34.676,21.431,58.040,30.16
2019-09-16 07:00,34.676,21.431,58.040,30.16
2019-09-16 08:00,34.676,21.431,58.040,30.16
2019-09-16 09:00,34.676,21.431,58.040,30.16
2019-09-16 10:00,34.663,21.428,58.000,30.14
2019-09-16 11:00,34.651,21.426,57.960,30.12
2019-09-16 12:00,34.638,21.419,57.930,30.11
2019-09-16 13:00,34.630,21.411,57.930,30.12
2019-09-16 14:00,34.636,21.408,57.960,30.14
2019-09-16 15:00,34.641,21.398,58.010,30.18
2019-09-16 16:00,34.647,21.392,58.050,30.21
2019-09-16 17:00,34.640,21.387,58.040,30.21
2019-09-16 18:00,34.626,21.373,58.030,30.22
2019-09-16 19:00,34.636,21.408,57.960,30.14
2019-09-16 20:00,34.636,21.408,57.960,30.14
2019-09-16 21:00,34.650,21.418,57.980,30.14
2019-09-16 22:00,34.657,21.423,57.990,30.14
2019-09-16 23:00,34.657,21.423,57.990,30.14
2019-09-17 00:00,34.657,21.423,57.990,30.14
2019-09-17 01:00,34.657,21.423,57.990,30.14
2019-09-17 02:00,34.657,21.427,57.980,30.13
2019-09-17 03:00,34.658,21.438,57.950,30.10
2019-09-17 04:00,34.658,21.438,57.950,30.10
2019-09-17 05:00,34.651,21.430,57.950,30.11
2019-09-17 06:00,34.704,21.459,58.060,30.14
2019-09-17 07:00,34.746,21.508,58.070,30.09
2019-09-17 08:00,34.760,21.518,58.090,30.09
2019-09-17 09:00,34.746,21.504,58.080,30.10
2019-09-17 10:00,34.664,21.490,57.810,29.96
2019-09-17 11:00,34.665,21.498,57.790,29.94
2019-09-17 12:00,34.658,21.489,57.790,29.95
2019-09-17 13:00,34.663,21.487,57.820,29.97
2019-09-17 14:00,34.662,21.472,57.860,30.01
2019-09-17 15:00,34.661,21.468,57.870,30.02
2019-09-17 16:00,34.655,21.467,57.850,30.01
2019-09-17 17:00,34.656,21.478,57.820,29.98
2019-09-17 18:00,34.658,21.493,57.780,29.94
2019-09-17 19:00,34.659,21.500,57.760,29.92
2019-09-17 20:00,34.653,21.502,57.730,29.90
2019-09-17 21:00,34.646,21.501,57.710,29.89
2019-09-17 22:00,34.638,21.485,57.730,29.92
2019-09-17 23:00,34.652,21.491,57.760,29.93
2019-09-18 00:00,34.652,21.495,57.750,29.92